Orbital Elements at Epoch 2459200.5 (2020-Dec-17.0) TDB
Reference: JPL 14 (heliocentric ecliptic J2000)
Element | Value | Uncertainty (1-sigma) | Units |
e | .1989514741949354 | 5.2125e-08 | |
a | 3.038131408614976 | 1.9455e-08 | au |
q | 2.433690686073091 | 1.5634e-07 | au |
i | .5881764254129186 | 4.4642e-06 | deg |
node | 267.5634023367279 | 0.00055002 | deg |
peri | 302.1682349363633 | 0.00055015 | deg |
M | 106.1685281927932 | 1.1305e-05 | deg |
tp | 2458630.071054888609 (2019-May-26.57105489) | 5.9929e-05 | TDB |
period | 1934.230640055537 5.30 | 1.8579e-05 5.087e-08 | d yr |
n | .1861205135234872 | 1.7878e-09 | deg/d |
Q | 3.642572131156861 | 2.3326e-08 | au |
|
| | Orbit Determination Parameters
Additional Information
|